Location: Melizzano
(41.1500°N, 14.5000°E)
Time: 23:00:50
(UTC+00:00)

Cosmos 1437 - Pass Details

Date: 11 May 2021
Orbit: 337 x 342 km, 81.2° (Epoch: 24 June)

Event Time Altitude Azimuth Distance (km) Brightness Sun altitude
Exits shadow 19:31:05 31° 119° (ESE) 657 3.2 -13.8°
Maximum altitude 19:31:35 34° 95° (E) 617 3.2 -13.8°
Drops below altitude 10° 19:34:15 10° 28° (NNE) 1,337 5.4 -14.2°
Sets 19:36:19 0° 19° (NNE) 2,187 6.7 -14.5°
